Time,TemperatureF,DewpointF,PressureIn,WindDirection,WindDirectionDegrees,WindSpeedMPH,WindSpeedGustMPH,Humidity,HourlyPrecipIn,Conditions,Clouds,dailyrainin,SoftwareType,DateUTC
2015-05-06 00:03:00,72.2,63.8,30.08,NE,46,0.0,6.0,75,0.00,,,0.00,Weather View 32 v70,2015-05-06 04:03:00,
2015-05-06 00:08:00,72.1,64.1,30.09,NE,46,0.0,6.0,76,0.00,,,0.00,Weather View 32 v70,2015-05-06 04:08:00,
2015-05-06 00:13:00,72.0,64.0,30.09,NE,46,2.0,6.0,76,0.00,,,0.00,Weather View 32 v70,2015-05-06 04:13:00,
2015-05-06 00:18:00,71.9,63.9,30.08,NE,46,0.0,6.0,76,0.00,,,0.00,Weather View 32 v70,2015-05-06 04:18:00,
2015-05-06 00:23:00,71.7,64.1,30.08,NE,46,0.0,6.0,77,0.00,,,0.00,Weather View 32 v70,2015-05-06 04:23:00,
2015-05-06 00:28:00,71.6,64.0,30.08,NE,46,0.0,6.0,77,0.00,,,0.00,Weather View 32 v70,2015-05-06 04:28:00,
2015-05-06 00:33:00,71.6,64.0,30.08,NE,46,0.0,6.0,77,0.00,,,0.00,Weather View 32 v70,2015-05-06 04:33:00,
2015-05-06 00:38:00,71.5,63.9,30.08,NE,46,0.0,6.0,77,0.00,,,0.00,Weather View 32 v70,2015-05-06 04:38:00,
2015-05-06 00:43:00,71.5,64.3,30.08,NE,46,0.0,6.0,78,0.00,,,0.00,Weather View 32 v70,2015-05-06 04:43:00,
2015-05-06 00:48:00,71.4,64.2,30.08,NE,46,0.0,6.0,78,0.00,,,0.00,Weather View 32 v70,2015-05-06 04:48:00,
2015-05-06 00:53:00,71.3,64.4,30.08,NE,46,0.0,4.0,79,0.00,,,0.00,Weather View 32 v70,2015-05-06 04:53:00,
2015-05-06 00:59:00,71.2,64.3,30.08,NE,46,0.0,4.0,79,0.00,,,0.00,Weather View 32 v70,2015-05-06 04:59:00,
2015-05-06 01:03:00,71.1,64.2,30.07,NE,46,0.0,4.0,79,0.00,,,0.00,Weather View 32 v70,2015-05-06 05:03:00,
2015-05-06 01:09:00,71.0,64.1,30.07,NE,46,0.0,4.0,79,0.00,,,0.00,Weather View 32 v70,2015-05-06 05:09:00,
2015-05-06 01:14:00,70.9,64.0,30.07,NE,46,0.0,4.0,79,0.00,,,0.00,Weather View 32 v70,2015-05-06 05:14:00,
2015-05-06 01:19:00,70.8,63.9,30.06,NE,46,0.0,4.0,79,0.00,,,0.00,Weather View 32 v70,2015-05-06 05:19:00,
2015-05-06 01:24:00,70.7,64.2,30.06,NE,46,0.0,4.0,80,0.00,,,0.00,Weather View 32 v70,2015-05-06 05:24:00,
2015-05-06 01:29:00,70.6,64.1,30.07,NE,46,0.0,4.0,80,0.00,,,0.00,Weather View 32 v70,2015-05-06 05:29:00,
2015-05-06 01:34:00,70.5,64.0,30.06,NE,46,0.0,3.0,80,0.00,,,0.00,Weather View 32 v70,2015-05-06 05:34:00,
2015-05-06 01:39:00,70.4,63.9,30.06,NE,46,0.0,3.0,80,0.00,,,0.00,Weather View 32 v70,2015-05-06 05:39:00,
2015-05-06 01:44:00,70.4,64.3,30.05,NE,46,0.0,3.0,81,0.00,,,0.00,Weather View 32 v70,2015-05-06 05:44:00,
2015-05-06 01:49:00,70.4,64.3,30.05,NE,42,0.0,4.0,81,0.00,,,0.00,Weather View 32 v70,2015-05-06 05:49:00,
2015-05-06 01:54:00,70.4,64.3,30.05,NE,42,2.0,4.0,81,0.00,,,0.00,Weather View 32 v70,2015-05-06 05:54:00,
2015-05-06 01:59:00,70.5,64.4,30.05,NNE,26,0.0,6.0,81,0.00,,,0.00,Weather View 32 v70,2015-05-06 05:59:00,
2015-05-06 02:00:00,70.5,64.4,30.06,NNE,26,0.0,6.0,81,0.00,,,0.00,Weather View 32 v70,2015-05-06 06:00:00,
2015-05-06 02:04:00,70.6,64.5,30.06,NNE,27,0.0,6.0,81,0.00,,,0.00,Weather View 32 v70,2015-05-06 06:04:00,
2015-05-06 02:09:00,70.6,64.5,30.05,NE,36,0.0,6.0,81,0.00,,,0.00,Weather View 32 v70,2015-05-06 06:09:00,
2015-05-06 02:14:00,70.7,64.6,30.05,NE,39,0.0,6.0,81,0.00,,,0.00,Weather View 32 v70,2015-05-06 06:14:00,
2015-05-06 02:19:00,70.8,64.7,30.05,NNE,31,1.0,6.0,81,0.00,,,0.00,Weather View 32 v70,2015-05-06 06:19:00,
2015-05-06 02:24:00,70.8,64.7,30.05,NE,38,0.0,6.0,81,0.00,,,0.00,Weather View 32 v70,2015-05-06 06:24:00,
2015-05-06 02:29:00,70.8,64.7,30.05,NE,44,0.0,9.0,81,0.00,,,0.00,Weather View 32 v70,2015-05-06 06:29:00,
2015-05-06 02:34:00,70.8,64.7,30.04,NNE,33,0.0,9.0,81,0.00,,,0.00,Weather View 32 v70,2015-05-06 06:34:00,
2015-05-06 02:39:00,70.7,64.6,30.04,NNE,27,0.0,9.0,81,0.00,,,0.00,Weather View 32 v70,2015-05-06 06:39:00,
2015-05-06 02:44:00,70.6,64.5,30.04,NNE,21,0.0,9.0,81,0.00,,,0.00,Weather View 32 v70,2015-05-06 06:44:00,
2015-05-06 02:49:00,70.5,64.7,30.04,NNE,28,0.0,9.0,82,0.00,,,0.00,Weather View 32 v70,2015-05-06 06:49:00,
2015-05-06 02:54:00,70.4,64.6,30.04,NNE,28,0.0,9.0,82,0.00,,,0.00,Weather View 32 v70,2015-05-06 06:54:00,
2015-05-06 03:00:00,70.4,64.6,30.04,NNE,28,0.0,9.0,82,0.00,,,0.00,Weather View 32 v70,2015-05-06 07:00:00,
2015-05-06 03:05:00,70.3,64.5,30.04,NNE,29,3.0,9.0,82,0.00,,,0.00,Weather View 32 v70,2015-05-06 07:05:00,
2015-05-06 03:10:00,70.3,64.5,30.04,NNE,30,0.0,9.0,82,0.00,,,0.00,Weather View 32 v70,2015-05-06 07:10:00,
2015-05-06 03:15:00,70.2,64.4,30.04,NNE,30,0.0,9.0,82,0.00,,,0.00,Weather View 32 v70,2015-05-06 07:15:00,
2015-05-06 03:20:00,70.2,64.8,30.04,NNE,30,0.0,9.0,83,0.00,,,0.00,Weather View 32 v70,2015-05-06 07:20:00,
2015-05-06 03:25:00,70.1,64.7,30.04,NE,37,0.0,9.0,83,0.00,,,0.00,Weather View 32 v70,2015-05-06 07:25:00,
2015-05-06 03:30:00,70.1,64.7,30.04,NE,37,0.0,7.0,83,0.00,,,0.00,Weather View 32 v70,2015-05-06 07:30:00,
2015-05-06 03:35:00,69.9,64.5,30.04,NE,38,0.0,7.0,83,0.00,,,0.00,Weather View 32 v70,2015-05-06 07:35:00,
2015-05-06 03:40:00,69.8,64.4,30.04,NE,37,3.0,7.0,83,0.00,,,0.00,Weather View 32 v70,2015-05-06 07:40:00,
2015-05-06 03:45:00,69.7,64.3,30.04,NE,37,0.0,5.0,83,0.00,,,0.00,Weather View 32 v70,2015-05-06 07:45:00,
2015-05-06 03:50:00,69.6,64.5,30.03,NE,37,0.0,5.0,84,0.00,,,0.00,Weather View 32 v70,2015-05-06 07:50:00,
2015-05-06 03:55:00,69.5,64.4,30.03,NE,37,0.0,5.0,84,0.00,,,0.00,Weather View 32 v70,2015-05-06 07:55:00,
2015-05-06 04:00:00,69.3,64.2,30.03,NE,36,0.0,5.0,84,0.00,,,0.00,Weather View 32 v70,2015-05-06 08:00:00,
2015-05-06 04:05:00,69.2,64.1,30.03,NE,36,0.0,5.0,84,0.00,,,0.00,Weather View 32 v70,2015-05-06 08:05:00,
2015-05-06 04:10:00,69.2,64.5,30.03,NE,36,0.0,5.0,85,0.00,,,0.00,Weather View 32 v70,2015-05-06 08:10:00,
2015-05-06 04:15:00,69.1,64.4,30.02,NE,36,0.0,5.0,85,0.00,,,0.00,Weather View 32 v70,2015-05-06 08:15:00,
2015-05-06 04:20:00,69.0,64.3,30.03,NE,36,0.0,5.0,85,0.00,,,0.00,Weather View 32 v70,2015-05-06 08:20:00,
2015-05-06 04:25:00,68.9,64.2,30.03,NE,36,0.0,5.0,85,0.00,,,0.00,Weather View 32 v70,2015-05-06 08:25:00,
2015-05-06 04:30:00,68.9,64.2,30.03,NE,37,0.0,5.0,85,0.00,,,0.00,Weather View 32 v70,2015-05-06 08:30:00,
2015-05-06 04:35:00,68.9,64.2,30.03,NE,37,0.0,5.0,85,0.00,,,0.00,Weather View 32 v70,2015-05-06 08:35:00,
2015-05-06 04:40:00,68.8,64.1,30.03,NE,37,0.0,5.0,85,0.00,,,0.00,Weather View 32 v70,2015-05-06 08:40:00,
2015-05-06 04:45:00,68.8,64.4,30.03,NE,37,0.0,5.0,86,0.00,,,0.00,Weather View 32 v70,2015-05-06 08:45:00,
2015-05-06 04:50:00,68.7,64.3,30.02,NE,36,0.0,5.0,86,0.00,,,0.00,Weather View 32 v70,2015-05-06 08:50:00,
2015-05-06 04:55:00,68.6,64.2,30.03,NE,36,0.0,5.0,86,0.00,,,0.00,Weather View 32 v70,2015-05-06 08:55:00,
2015-05-06 05:00:00,68.5,64.1,30.02,NE,36,0.0,5.0,86,0.00,,,0.00,Weather View 32 v70,2015-05-06 09:00:00,
2015-05-06 05:05:00,68.4,64.0,30.02,NE,36,0.0,5.0,86,0.00,,,0.00,Weather View 32 v70,2015-05-06 09:05:00,
2015-05-06 05:10:00,68.3,63.9,30.02,NE,36,0.0,5.0,86,0.00,,,0.00,Weather View 32 v70,2015-05-06 09:10:00,
2015-05-06 05:15:00,68.2,63.8,30.02,NE,36,0.0,5.0,86,0.00,,,0.00,Weather View 32 v70,2015-05-06 09:15:00,
2015-05-06 05:20:00,68.1,63.7,30.02,NE,36,0.0,5.0,86,0.00,,,0.00,Weather View 32 v70,2015-05-06 09:20:00,
2015-05-06 05:25:00,68.0,64.0,30.02,NE,36,0.0,5.0,87,0.00,,,0.00,Weather View 32 v70,2015-05-06 09:25:00,
2015-05-06 05:30:00,68.0,64.0,30.01,NE,36,0.0,3.0,87,0.00,,,0.00,Weather View 32 v70,2015-05-06 09:30:00,
2015-05-06 05:35:00,67.9,63.9,30.01,NE,36,2.0,3.0,87,0.00,,,0.00,Weather View 32 v70,2015-05-06 09:35:00,
2015-05-06 05:40:00,67.9,63.9,30.01,NE,36,0.0,3.0,87,0.00,,,0.00,Weather View 32 v70,2015-05-06 09:40:00,
2015-05-06 05:45:00,67.9,63.9,30.01,NE,36,0.0,3.0,87,0.00,,,0.00,Weather View 32 v70,2015-05-06 09:45:00,
2015-05-06 05:50:00,67.9,63.9,30.01,NE,36,0.0,3.0,87,0.00,,,0.00,Weather View 32 v70,2015-05-06 09:50:00,
2015-05-06 05:55:00,67.8,63.8,30.02,NE,36,0.0,3.0,87,0.00,,,0.00,Weather View 32 v70,2015-05-06 09:55:00,
2015-05-06 06:00:00,67.8,63.8,30.01,NE,36,0.0,3.0,87,0.00,,,0.00,Weather View 32 v70,2015-05-06 10:00:00,
2015-05-06 06:05:00,67.8,63.8,30.01,NE,36,0.0,3.0,87,0.00,,,0.00,Weather View 32 v70,2015-05-06 10:05:00,
2015-05-06 06:10:00,67.9,64.2,30.01,NE,36,0.0,3.0,88,0.00,,,0.00,Weather View 32 v70,2015-05-06 10:10:00,
2015-05-06 06:15:00,67.9,64.2,30.02,NE,36,0.0,3.0,88,0.00,,,0.00,Weather View 32 v70,2015-05-06 10:15:00,
2015-05-06 06:20:00,67.9,64.2,30.02,NE,36,0.0,3.0,88,0.00,,,0.00,Weather View 32 v70,2015-05-06 10:20:00,
2015-05-06 06:25:00,67.9,64.2,30.02,NE,36,0.0,3.0,88,0.00,,,0.00,Weather View 32 v70,2015-05-06 10:25:00,
2015-05-06 06:31:00,68.0,64.3,30.02,NE,36,0.0,3.0,88,0.00,,,0.00,Weather View 32 v70,2015-05-06 10:31:00,
2015-05-06 06:36:00,68.0,64.3,30.02,NE,36,0.0,3.0,88,0.00,,,0.00,Weather View 32 v70,2015-05-06 10:36:00,
2015-05-06 06:41:00,67.9,64.2,30.02,NE,36,0.0,3.0,88,0.00,,,0.00,Weather View 32 v70,2015-05-06 10:41:00,
2015-05-06 06:46:00,67.9,64.2,30.02,NE,36,0.0,3.0,88,0.00,,,0.00,Weather View 32 v70,2015-05-06 10:46:00,
2015-05-06 06:51:00,67.8,64.1,30.02,NE,36,0.0,3.0,88,0.00,,,0.00,Weather View 32 v70,2015-05-06 10:51:00,
2015-05-06 06:56:00,67.8,64.1,30.02,NE,36,0.0,3.0,88,0.00,,,0.00,Weather View 32 v70,2015-05-06 10:56:00,
2015-05-06 07:00:00,67.7,64.0,30.02,NE,39,0.0,3.0,88,0.00,,,0.00,Weather View 32 v70,2015-05-06 11:00:00,
2015-05-06 07:01:00,67.7,64.0,30.02,NE,39,0.0,3.0,88,0.00,,,0.00,Weather View 32 v70,2015-05-06 11:01:00,
2015-05-06 07:06:00,67.7,64.0,30.02,NE,39,0.0,3.0,88,0.00,,,0.00,Weather View 32 v70,2015-05-06 11:06:00,
2015-05-06 07:11:00,67.8,64.1,30.02,NE,39,0.0,3.0,88,0.00,,,0.00,Weather View 32 v70,2015-05-06 11:11:00,
2015-05-06 07:16:00,68.0,64.6,30.02,NE,39,0.0,3.0,89,0.00,,,0.00,Weather View 32 v70,2015-05-06 11:16:00,
2015-05-06 07:21:00,68.1,64.7,30.02,NE,39,0.0,3.0,89,0.00,,,0.00,Weather View 32 v70,2015-05-06 11:21:00,
2015-05-06 07:26:00,68.3,64.9,30.02,NE,39,0.0,2.0,89,0.00,,,0.00,Weather View 32 v70,2015-05-06 11:26:00,
2015-05-06 07:31:00,68.6,65.2,30.02,NE,38,2.0,4.0,89,0.00,,,0.00,Weather View 32 v70,2015-05-06 11:31:00,
2015-05-06 07:36:00,69.0,65.6,30.03,NE,40,4.0,5.0,89,0.00,,,0.00,Weather View 32 v70,2015-05-06 11:36:00,
2015-05-06 07:41:00,69.5,66.1,30.03,NNE,30,3.0,5.0,89,0.00,,,0.00,Weather View 32 v70,2015-05-06 11:41:00,
2015-05-06 07:46:00,69.9,66.5,30.03,NE,38,4.0,5.0,89,0.00,,,0.00,Weather View 32 v70,2015-05-06 11:46:00,
2015-05-06 07:51:00,70.2,66.5,30.03,NNE,15,0.0,7.0,88,0.00,,,0.00,Weather View 32 v70,2015-05-06 11:51:00,
2015-05-06 07:56:00,70.6,66.9,30.04,NE,38,0.0,7.0,88,0.00,,,0.00,Weather View 32 v70,2015-05-06 11:56:00,
2015-05-06 08:00:00,70.8,67.1,30.04,NE,46,0.0,8.0,88,0.00,,,0.00,Weather View 32 v70,2015-05-06 12:00:00,
2015-05-06 08:01:00,70.9,67.2,30.04,NE,40,0.0,8.0,88,0.00,,,0.00,Weather View 32 v70,2015-05-06 12:01:00,
2015-05-06 08:06:00,71.1,67.0,30.04,NE,42,7.0,10.0,87,0.00,,,0.00,Weather View 32 v70,2015-05-06 12:06:00,
2015-05-06 08:11:00,71.2,67.1,30.04,NE,45,0.0,10.0,87,0.00,,,0.00,Weather View 32 v70,2015-05-06 12:11:00,
2015-05-06 08:16:00,71.5,67.4,30.04,NE,36,0.0,10.0,87,0.00,,,0.00,Weather View 32 v70,2015-05-06 12:16:00,
2015-05-06 08:21:00,71.7,67.6,30.04,NE,34,0.0,10.0,87,0.00,,,0.00,Weather View 32 v70,2015-05-06 12:21:00,
2015-05-06 08:26:00,72.0,67.6,30.04,NNE,21,4.0,10.0,86,0.00,,,0.00,Weather View 32 v70,2015-05-06 12:26:00,
2015-05-06 08:31:00,72.2,67.8,30.05,NNE,22,3.0,10.0,86,0.00,,,0.00,Weather View 32 v70,2015-05-06 12:31:00,
2015-05-06 08:36:00,72.3,67.9,30.05,NNE,28,0.0,10.0,86,0.00,,,0.00,Weather View 32 v70,2015-05-06 12:36:00,
2015-05-06 08:41:00,72.4,68.0,30.04,NNE,30,2.0,10.0,86,0.00,,,0.00,Weather View 32 v70,2015-05-06 12:41:00,
2015-05-06 08:46:00,72.5,67.7,30.04,NNE,28,2.0,10.0,85,0.00,,,0.00,Weather View 32 v70,2015-05-06 12:46:00,
2015-05-06 08:51:00,72.9,68.1,30.04,NE,42,6.0,10.0,85,0.00,,,0.00,Weather View 32 v70,2015-05-06 12:51:00,
2015-05-06 08:56:00,73.4,68.6,30.04,NE,40,1.0,10.0,85,0.00,,,0.00,Weather View 32 v70,2015-05-06 12:56:00,
2015-05-06 09:00:00,73.9,68.7,30.04,NNE,32,1.0,10.0,84,0.00,,,0.00,Weather View 32 v70,2015-05-06 13:00:00,
2015-05-06 09:01:00,74.1,68.6,30.04,NNE,22,0.0,10.0,83,0.00,,,0.00,Weather View 32 v70,2015-05-06 13:01:00,
2015-05-06 09:07:00,74.3,68.4,30.04,NE,34,0.0,10.0,82,0.00,,,0.00,Weather View 32 v70,2015-05-06 13:07:00,
2015-05-06 09:12:00,74.1,68.6,30.04,NE,40,1.0,8.0,83,0.00,,,0.00,Weather View 32 v70,2015-05-06 13:12:00,
2015-05-06 09:17:00,74.6,69.1,30.04,NE,40,0.0,8.0,83,0.00,,,0.00,Weather View 32 v70,2015-05-06 13:17:00,
2015-05-06 09:22:00,75.5,69.6,30.04,NE,40,1.0,8.0,82,0.00,,,0.00,Weather View 32 v70,2015-05-06 13:22:00,
2015-05-06 09:27:00,76.1,69.5,30.04,ESE,115,2.0,8.0,80,0.00,,,0.00,Weather View 32 v70,2015-05-06 13:27:00,
2015-05-06 09:32:00,76.5,69.5,30.04,ESE,107,0.0,8.0,79,0.00,,,0.00,Weather View 32 v70,2015-05-06 13:32:00,
2015-05-06 09:37:00,76.8,69.4,30.04,ENE,57,0.0,8.0,78,0.00,,,0.00,Weather View 32 v70,2015-05-06 13:37:00,
2015-05-06 09:42:00,76.7,69.3,30.04,NE,36,0.0,8.0,78,0.00,,,0.00,Weather View 32 v70,2015-05-06 13:42:00,
2015-05-06 09:47:00,77.3,69.5,30.04,NE,46,0.0,8.0,77,0.00,,,0.00,Weather View 32 v70,2015-05-06 13:47:00,
2015-05-06 09:52:00,77.5,69.3,30.04,NE,44,0.0,8.0,76,0.00,,,0.00,Weather View 32 v70,2015-05-06 13:52:00,
2015-05-06 09:57:00,78.2,70.0,30.04,NE,48,0.0,8.0,76,0.00,,,0.00,Weather View 32 v70,2015-05-06 13:57:00,
2015-05-06 10:00:00,78.5,69.9,30.04,NE,48,0.0,8.0,75,0.00,,,0.00,Weather View 32 v70,2015-05-06 14:00:00,
2015-05-06 10:02:00,78.7,69.3,30.04,ESE,119,5.0,8.0,73,0.00,,,0.00,Weather View 32 v70,2015-05-06 14:02:00,
2015-05-06 10:07:00,79.1,69.7,30.04,ESE,111,2.0,8.0,73,0.00,,,0.00,Weather View 32 v70,2015-05-06 14:07:00,
2015-05-06 10:12:00,79.4,68.7,30.05,East,82,0.0,7.0,70,0.00,,,0.00,Weather View 32 v70,2015-05-06 14:12:00,
2015-05-06 10:17:00,79.7,69.4,30.05,East,99,0.0,7.0,71,0.00,,,0.00,Weather View 32 v70,2015-05-06 14:17:00,
2015-05-06 10:22:00,80.3,69.2,30.05,ESE,111,4.0,7.0,69,0.00,,,0.00,Weather View 32 v70,2015-05-06 14:22:00,
2015-05-06 10:27:00,80.6,69.0,30.05,East,98,2.0,7.0,68,0.00,,,0.00,Weather View 32 v70,2015-05-06 14:27:00,
2015-05-06 10:32:00,80.3,68.7,30.05,NE,39,4.0,7.0,68,0.00,,,0.00,Weather View 32 v70,2015-05-06 14:32:00,
2015-05-06 10:37:00,80.2,68.6,30.05,North,360,2.0,7.0,68,0.00,,,0.00,Weather View 32 v70,2015-05-06 14:37:00,
2015-05-06 10:42:00,80.0,68.9,30.05,East,90,6.0,7.0,69,0.00,,,0.00,Weather View 32 v70,2015-05-06 14:42:00,
2015-05-06 10:47:00,80.3,69.2,30.05,East,82,0.0,9.0,69,0.00,,,0.00,Weather View 32 v70,2015-05-06 14:47:00,
2015-05-06 10:52:00,80.6,68.6,30.05,NE,51,0.0,9.0,67,0.00,,,0.00,Weather View 32 v70,2015-05-06 14:52:00,
2015-05-06 10:57:00,80.7,69.1,30.05,East,98,0.0,9.0,68,0.00,,,0.00,Weather View 32 v70,2015-05-06 14:57:00,
2015-05-06 11:00:00,80.9,69.7,30.05,East,99,0.0,9.0,69,0.00,,,0.00,Weather View 32 v70,2015-05-06 15:00:00,
2015-05-06 11:02:00,81.2,69.6,30.05,NNE,30,3.0,10.0,68,0.00,,,0.00,Weather View 32 v70,2015-05-06 15:02:00,
2015-05-06 11:07:00,82.0,69.0,30.05,NNE,28,1.0,10.0,65,0.00,,,0.00,Weather View 32 v70,2015-05-06 15:07:00,
2015-05-06 11:12:00,82.5,69.5,30.05,ESE,119,4.0,10.0,65,0.00,,,0.00,Weather View 32 v70,2015-05-06 15:12:00,
2015-05-06 11:17:00,82.2,69.2,30.05,ENE,57,0.0,10.0,65,0.00,,,0.00,Weather View 32 v70,2015-05-06 15:17:00,
2015-05-06 11:22:00,82.6,69.6,30.05,ENE,62,0.0,10.0,65,0.00,,,0.00,Weather View 32 v70,2015-05-06 15:22:00,
2015-05-06 11:27:00,83.1,69.6,30.05,East,94,0.0,10.0,64,0.00,,,0.00,Weather View 32 v70,2015-05-06 15:27:00,
2015-05-06 11:32:00,83.2,69.7,30.05,NE,44,0.0,10.0,64,0.00,,,0.00,Weather View 32 v70,2015-05-06 15:32:00,
2015-05-06 11:37:00,84.0,70.0,30.05,East,98,1.0,10.0,63,0.00,,,0.00,Weather View 32 v70,2015-05-06 15:37:00,
2015-05-06 11:42:00,83.9,69.9,30.05,ENE,67,0.0,10.0,63,0.00,,,0.00,Weather View 32 v70,2015-05-06 15:42:00,
2015-05-06 11:47:00,84.0,69.0,30.05,NE,55,0.0,10.0,61,0.00,,,0.00,Weather View 32 v70,2015-05-06 15:47:00,
2015-05-06 11:52:00,84.6,70.1,30.05,NE,42,0.0,10.0,62,0.00,,,0.00,Weather View 32 v70,2015-05-06 15:52:00,
2015-05-06 11:57:00,84.8,69.3,30.04,ESE,122,4.0,10.0,60,0.00,,,0.00,Weather View 32 v70,2015-05-06 15:57:00,
2015-05-06 12:00:00,84.8,69.3,30.04,SE,125,3.0,10.0,60,0.00,,,0.00,Weather View 32 v70,2015-05-06 16:00:00,
2015-05-06 12:03:00,84.7,69.2,30.05,SE,125,0.0,8.0,60,0.00,,,0.00,Weather View 32 v70,2015-05-06 16:03:00,
2015-05-06 12:08:00,85.2,69.7,30.04,NNE,13,0.0,9.0,60,0.00,,,0.00,Weather View 32 v70,2015-05-06 16:08:00,
2015-05-06 12:13:00,84.5,69.0,30.04,WNW,288,0.0,9.0,60,0.00,,,0.00,Weather View 32 v70,2015-05-06 16:13:00,
2015-05-06 12:18:00,84.8,68.3,30.04,WNW,292,0.0,9.0,58,0.00,,,0.00,Weather View 32 v70,2015-05-06 16:18:00,
2015-05-06 12:23:00,84.3,69.8,30.04,WNW,291,1.0,9.0,62,0.00,,,0.00,Weather View 32 v70,2015-05-06 16:23:00,
2015-05-06 12:28:00,84.0,70.5,30.04,WNW,291,0.0,9.0,64,0.00,,,0.00,Weather View 32 v70,2015-05-06 16:28:00,
2015-05-06 12:33:00,83.9,70.8,30.04,WNW,291,0.0,9.0,65,0.00,,,0.00,Weather View 32 v70,2015-05-06 16:33:00,
2015-05-06 12:38:00,83.6,70.1,30.04,WNW,291,4.0,9.0,64,0.00,,,0.00,Weather View 32 v70,2015-05-06 16:38:00,
2015-05-06 12:43:00,82.9,68.0,30.04,WNW,291,0.0,9.0,61,0.00,,,0.00,Weather View 32 v70,2015-05-06 16:43:00,
2015-05-06 12:48:00,83.3,69.8,30.03,North,11,0.0,9.0,64,0.00,,,0.00,Weather View 32 v70,2015-05-06 16:48:00,
2015-05-06 12:53:00,83.9,70.8,30.03,North,11,0.0,9.0,65,0.00,,,0.00,Weather View 32 v70,2015-05-06 16:53:00,
2015-05-06 12:58:00,85.0,71.4,30.03,NW,304,5.0,9.0,64,0.00,,,0.00,Weather View 32 v70,2015-05-06 16:58:00,
2015-05-06 13:00:00,85.0,70.5,30.03,WNW,292,3.0,9.0,62,0.00,,,0.00,Weather View 32 v70,2015-05-06 17:00:00,
2015-05-06 13:03:00,85.1,70.6,30.03,NNW,344,1.0,9.0,62,0.00,,,0.00,Weather View 32 v70,2015-05-06 17:03:00,
2015-05-06 13:08:00,85.4,70.8,30.03,NW,317,0.0,7.0,62,0.00,,,0.00,Weather View 32 v70,2015-05-06 17:08:00,
2015-05-06 13:13:00,85.8,71.2,30.02,WNW,284,4.0,7.0,62,0.00,,,0.00,Weather View 32 v70,2015-05-06 17:13:00,
2015-05-06 13:18:00,85.8,71.2,30.02,NW,306,0.0,7.0,62,0.00,,,0.00,Weather View 32 v70,2015-05-06 17:18:00,
2015-05-06 13:23:00,86.3,71.2,30.02,NE,34,0.0,7.0,61,0.00,,,0.00,Weather View 32 v70,2015-05-06 17:23:00,
2015-05-06 13:28:00,86.2,70.6,30.02,West,273,5.0,7.0,60,0.00,,,0.00,Weather View 32 v70,2015-05-06 17:28:00,
2015-05-06 13:33:00,86.1,71.0,30.02,WNW,288,2.0,8.0,61,0.00,,,0.00,Weather View 32 v70,2015-05-06 17:33:00,
2015-05-06 13:38:00,86.7,70.6,30.02,NW,323,3.0,8.0,59,0.00,,,0.00,Weather View 32 v70,2015-05-06 17:38:00,
2015-05-06 13:43:00,86.3,70.7,30.02,NNE,15,1.0,8.0,60,0.00,,,0.00,Weather View 32 v70,2015-05-06 17:43:00,
2015-05-06 13:48:00,86.8,70.2,30.01,North,9,0.0,8.0,58,0.00,,,0.00,Weather View 32 v70,2015-05-06 17:48:00,
2015-05-06 13:53:00,87.0,69.9,30.01,West,273,6.0,8.0,57,0.00,,,0.00,Weather View 32 v70,2015-05-06 17:53:00,
2015-05-06 13:58:00,86.9,69.8,30.01,NNW,336,4.0,8.0,57,0.00,,,0.00,Weather View 32 v70,2015-05-06 17:58:00,
2015-05-06 14:00:00,86.9,69.8,30.01,WNW,282,5.0,8.0,57,0.00,,,0.00,Weather View 32 v70,2015-05-06 18:00:00,
2015-05-06 14:03:00,85.9,68.8,30.01,NNE,15,3.0,8.0,57,0.00,,,0.00,Weather View 32 v70,2015-05-06 18:03:00,
2015-05-06 14:08:00,86.0,69.4,30.01,WNW,283,3.0,9.0,58,0.00,,,0.00,Weather View 32 v70,2015-05-06 18:08:00,
2015-05-06 14:13:00,85.7,68.6,30.01,NW,315,4.0,9.0,57,0.00,,,0.00,Weather View 32 v70,2015-05-06 18:13:00,
2015-05-06 14:18:00,86.1,68.5,30.01,North,-9999,9.0,9.0,56,0.00,,,0.00,Weather View 32 v70,2015-05-06 18:18:00,
2015-05-06 14:23:00,85.4,68.4,30.01,West,272,5.0,12.0,57,0.00,,,0.00,Weather View 32 v70,2015-05-06 18:23:00,
2015-05-06 14:28:00,84.9,67.9,30.01,West,275,6.0,12.0,57,0.00,,,0.00,Weather View 32 v70,2015-05-06 18:28:00,
2015-05-06 14:34:00,84.6,67.6,30.01,West,279,6.0,12.0,57,0.00,,,0.00,Weather View 32 v70,2015-05-06 18:34:00,
2015-05-06 14:39:00,84.2,67.3,30.01,North,-9999,4.0,12.0,57,0.00,,,0.00,Weather View 32 v70,2015-05-06 18:39:00,
2015-05-06 14:44:00,84.4,66.9,30.01,WNW,290,4.0,12.0,56,0.00,,,0.00,Weather View 32 v70,2015-05-06 18:44:00,
2015-05-06 14:49:00,84.9,67.9,30.01,West,275,4.0,12.0,57,0.00,,,0.00,Weather View 32 v70,2015-05-06 18:49:00,
2015-05-06 14:54:00,84.6,67.6,30.01,WNW,285,5.0,12.0,57,0.00,,,0.00,Weather View 32 v70,2015-05-06 18:54:00,
2015-05-06 14:59:00,84.9,68.4,30.01,West,279,4.0,12.0,58,0.00,,,0.00,Weather View 32 v70,2015-05-06 18:59:00,
2015-05-06 15:00:00,85.1,68.1,30.00,West,281,4.0,12.0,57,0.00,,,0.00,Weather View 32 v70,2015-05-06 19:00:00,
2015-05-06 15:04:00,85.7,68.1,30.00,West,263,3.0,12.0,56,0.00,,,0.00,Weather View 32 v70,2015-05-06 19:04:00,
2015-05-06 15:09:00,85.8,67.7,30.00,West,265,3.0,12.0,55,0.00,,,0.00,Weather View 32 v70,2015-05-06 19:09:00,
2015-05-06 15:14:00,85.4,67.9,30.00,SW,231,7.0,12.0,56,0.00,,,0.00,Weather View 32 v70,2015-05-06 19:14:00,
2015-05-06 15:19:00,85.6,68.0,30.00,WNW,284,2.0,12.0,56,0.00,,,0.00,Weather View 32 v70,2015-05-06 19:19:00,
2015-05-06 15:24:00,85.6,68.6,30.00,WNW,284,7.0,11.0,57,0.00,,,0.00,Weather View 32 v70,2015-05-06 19:24:00,
2015-05-06 15:29:00,85.7,68.6,29.99,West,281,5.0,11.0,57,0.00,,,0.00,Weather View 32 v70,2015-05-06 19:29:00,
2015-05-06 15:34:00,85.0,68.0,30.00,West,281,5.0,11.0,57,0.00,,,0.00,Weather View 32 v70,2015-05-06 19:34:00,
2015-05-06 15:39:00,85.2,68.7,29.99,WNW,294,3.0,11.0,58,0.00,,,0.00,Weather View 32 v70,2015-05-06 19:39:00,
2015-05-06 15:44:00,85.2,68.7,29.99,West,281,4.0,11.0,58,0.00,,,0.00,Weather View 32 v70,2015-05-06 19:44:00,
2015-05-06 15:49:00,84.9,71.3,29.99,West,280,3.0,11.0,64,0.00,,,0.00,Weather View 32 v70,2015-05-06 19:49:00,
2015-05-06 15:54:00,85.1,70.6,29.99,WSW,252,10.0,11.0,62,0.00,,,0.00,Weather View 32 v70,2015-05-06 19:54:00,
2015-05-06 15:59:00,84.7,67.7,29.99,WNW,290,3.0,11.0,57,0.00,,,0.00,Weather View 32 v70,2015-05-06 19:59:00,
2015-05-06 16:00:00,84.8,67.8,29.99,WNW,291,4.0,11.0,57,0.00,,,0.00,Weather View 32 v70,2015-05-06 20:00:00,
2015-05-06 16:04:00,85.0,68.5,29.99,WNW,293,2.0,11.0,58,0.00,,,0.00,Weather View 32 v70,2015-05-06 20:04:00,
2015-05-06 16:09:00,85.2,69.2,29.99,WNW,288,3.0,11.0,59,0.00,,,0.00,Weather View 32 v70,2015-05-06 20:09:00,
2015-05-06 16:14:00,85.3,69.3,29.99,WNW,302,2.0,11.0,59,0.00,,,0.00,Weather View 32 v70,2015-05-06 20:14:00,
2015-05-06 16:19:00,85.7,69.2,29.99,West,267,3.0,11.0,58,0.00,,,0.00,Weather View 32 v70,2015-05-06 20:19:00,
2015-05-06 16:24:00,85.5,70.0,29.99,WNW,286,6.0,11.0,60,0.00,,,0.00,Weather View 32 v70,2015-05-06 20:24:00,
2015-05-06 16:29:00,84.7,69.7,29.99,West,271,5.0,11.0,61,0.00,,,0.00,Weather View 32 v70,2015-05-06 20:29:00,
2015-05-06 16:34:00,84.6,69.6,29.99,WNW,289,5.0,10.0,61,0.00,,,0.00,Weather View 32 v70,2015-05-06 20:34:00,
2015-05-06 16:39:00,84.9,69.9,29.99,West,281,6.0,10.0,61,0.00,,,0.00,Weather View 32 v70,2015-05-06 20:39:00,
2015-05-06 16:44:00,85.0,71.4,29.99,WSW,258,5.0,10.0,64,0.00,,,0.00,Weather View 32 v70,2015-05-06 20:44:00,
2015-05-06 16:49:00,84.9,70.4,29.99,WNW,290,0.0,11.0,62,0.00,,,0.00,Weather View 32 v70,2015-05-06 20:49:00,
2015-05-06 16:54:00,84.5,70.9,29.99,West,281,3.0,11.0,64,0.00,,,0.00,Weather View 32 v70,2015-05-06 20:54:00,
2015-05-06 16:59:00,84.5,70.0,29.99,WNW,288,4.0,11.0,62,0.00,,,0.00,Weather View 32 v70,2015-05-06 20:59:00,
2015-05-06 17:00:00,84.5,70.0,29.99,WNW,289,4.0,11.0,62,0.00,,,0.00,Weather View 32 v70,2015-05-06 21:00:00,
2015-05-06 17:04:00,84.6,70.1,29.99,WNW,296,2.0,11.0,62,0.00,,,0.00,Weather View 32 v70,2015-05-06 21:04:00,
2015-05-06 17:09:00,84.8,70.7,29.99,WNW,297,3.0,11.0,63,0.00,,,0.00,Weather View 32 v70,2015-05-06 21:09:00,
2015-05-06 17:14:00,84.0,70.9,29.99,WNW,287,4.0,11.0,65,0.00,,,0.00,Weather View 32 v70,2015-05-06 21:14:00,
2015-05-06 17:19:00,83.6,70.5,29.99,NW,304,4.0,11.0,65,0.00,,,0.00,Weather View 32 v70,2015-05-06 21:19:00,
2015-05-06 17:24:00,83.7,70.2,29.99,WNW,297,4.0,11.0,64,0.00,,,0.00,Weather View 32 v70,2015-05-06 21:24:00,
2015-05-06 17:29:00,83.3,70.3,29.99,WNW,285,7.0,11.0,65,0.00,,,0.00,Weather View 32 v70,2015-05-06 21:29:00,
2015-05-06 17:35:00,82.7,70.6,29.99,WNW,293,1.0,11.0,67,0.00,,,0.00,Weather View 32 v70,2015-05-06 21:35:00,
2015-05-06 17:40:00,82.2,70.1,29.99,WNW,289,6.0,11.0,67,0.00,,,0.00,Weather View 32 v70,2015-05-06 21:40:00,
2015-05-06 17:45:00,81.9,70.3,29.99,WNW,294,3.0,11.0,68,0.00,,,0.00,Weather View 32 v70,2015-05-06 21:45:00,
2015-05-06 17:50:00,81.8,70.2,29.99,West,279,7.0,11.0,68,0.00,,,0.00,Weather View 32 v70,2015-05-06 21:50:00,
2015-05-06 17:55:00,81.8,70.2,29.98,WNW,286,4.0,11.0,68,0.00,,,0.00,Weather View 32 v70,2015-05-06 21:55:00,
2015-05-06 18:00:00,81.6,70.0,29.99,WNW,298,5.0,11.0,68,0.00,,,0.00,Weather View 32 v70,2015-05-06 22:00:00,
2015-05-06 18:05:00,81.5,69.9,29.98,WNW,295,5.0,11.0,68,0.00,,,0.00,Weather View 32 v70,2015-05-06 22:05:00,
2015-05-06 18:10:00,81.4,69.8,29.98,WNW,292,4.0,11.0,68,0.00,,,0.00,Weather View 32 v70,2015-05-06 22:10:00,
2015-05-06 18:15:00,81.6,69.5,29.98,WNW,302,3.0,11.0,67,0.00,,,0.00,Weather View 32 v70,2015-05-06 22:15:00,
2015-05-06 18:20:00,81.4,69.8,29.98,WNW,289,5.0,11.0,68,0.00,,,0.00,Weather View 32 v70,2015-05-06 22:20:00,
2015-05-06 18:25:00,81.1,69.9,29.98,WNW,294,4.0,11.0,69,0.00,,,0.00,Weather View 32 v70,2015-05-06 22:25:00,
2015-05-06 18:30:00,81.0,69.4,29.97,WNW,293,5.0,11.0,68,0.00,,,0.00,Weather View 32 v70,2015-05-06 22:30:00,
2015-05-06 18:35:00,80.7,69.1,29.97,WNW,289,7.0,11.0,68,0.00,,,0.00,Weather View 32 v70,2015-05-06 22:35:00,
2015-05-06 18:40:00,80.4,68.8,29.97,West,259,3.0,11.0,68,0.00,,,0.00,Weather View 32 v70,2015-05-06 22:40:00,
2015-05-06 18:45:00,80.2,69.1,29.97,West,279,8.0,11.0,69,0.00,,,0.00,Weather View 32 v70,2015-05-06 22:45:00,
2015-05-06 18:50:00,80.0,68.9,29.97,WNW,284,6.0,11.0,69,0.00,,,0.00,Weather View 32 v70,2015-05-06 22:50:00,